Flag for Mexico Weather past 2 weeks in Mexico City, Federal District, Mexico

Now
64 °F

Partly cloudy.


Feels Like: 64 °F
Forecast: 57 / 72 °F
Wind: 10 mph from West

Location: Mexico City / Licenci

Current Time: Jul 29, 2014 at 11:33:03 PM

Latest Report: Jul 29, 2014 at 10:53 PM


Visibility: 12 mi

Pressure: 30.41 "Hg

Humidity: 60%

Dew point: 50 °F

Location of Mexico CityLocation

Historic Weather in Mexico City — Graph

°F

Mexico City temperature yesterday

Maximum temperature yesterday: 70 °F (at 1:47 PM)
Minimum temperature yesterday: 55 °F (at 7:24 AM)
Average temperature yesterday: 61 °F

Past Weeks' High & Low Weather Summary

 TemperatureHumidityPressure
High81 °F (Jul 21, 5:10 PM)94% (Jul 16, 7:18 PM)30.48 "Hg (Jul 16, 7:18 PM)
Low54 °F (Jul 24, 5:45 AM)23% (Jul 21, 5:10 PM)29.56 "Hg (Jul 20, 7:27 PM)
Average63 °F67%30.25 "Hg
* Reported Jul 14 10:45 PM — Jul 29 9:46 PM, Mexico City, Weather by CustomWeather, © 2014

Note: Actual official high and low records may vary slightly from our data, if they occured in-between our weather recording intervals... More about our weather records

Advertising

Mexico City weather history for previous 24 hours

 ConditionsComfort  
Time TempWeatherWind HumidityBarometerVisibility
9:46 PM
Jul 29
66 °FPartly cloudy.6 mph60%29.87 "Hg12 mi
8:45 PM68 °FBroken clouds.18 mph56%30.33 "Hg12 mi
6:51 PM72 °FBroken clouds.18 mph50%29.80 "Hg12 mi
5:47 PM75 °FBroken clouds.6 mph36%30.29 "Hg12 mi
4:46 PM75 °FBroken clouds.6 mph39%30.31 "Hg8 mi
3:49 PM73 °FScattered clouds.7 mph41%29.83 "Hg8 mi
1:46 PM72 °FSunny.5 mph41%30.39 "Hg6 mi
12:45 PM68 °FSunny.5 mph46%29.94 "Hg6 mi
10:47 AM63 °FPassing clouds.3 mph64%30.45 "Hg6 mi
10:20 AM61 °FScattered clouds.6 mph68%30.45 "Hg6 mi
9:49 AM61 °FScattered clouds.3 mph68%30.03 "Hg6 mi
9:20 AM59 °FScattered clouds.3 mph72%30.45 "Hg6 mi
9:06 AM59 °FPartly sunny.3 mph72%30.45 "Hg6 mi
8:20 AM55 °FPartly sunny.5 mph82%30.45 "Hg6 mi
7:24 AM54 °FMostly cloudy.2 mph88%30.44 "Hg6 mi
6:51 AM54 °FPartly cloudy.5 mph88%29.98 "Hg6 mi
5:51 AM55 °FPassing clouds.No wind82%30.41 "Hg7 mi
4:49 AM54 °FPassing clouds.No wind88%30.41 "Hg7 mi
3:51 AM55 °FPassing clouds.3 mph82%29.90 "Hg6 mi
2:41 AM54 °FPassing clouds.5 mph88%30.42 "Hg6 mi
1:47 AM55 °FFog.7 mph88%30.42 "Hg3 mi
12:43 AM57 °FPassing clouds.5 mph77%29.96 "Hg15 mi
11:48 PM
Jul 28
57 °FPartly cloudy.9 mph82%30.45 "Hg12 mi
Weather by CustomWeather, © 2014

See weather overviewHow to use our weather pages